Mount Vernon, IL

12:13 PM CST on December 06, 2019 (GMT -0600)
Mount Vernon

Weather History for KMVN - November, 2019

Change the Weather History Date:

Tuesday, November 19, 2019

  Actual Average Record
Temperature  
Mean Temperature 40 °F -  
Max Temperature 53 °F 51 °F 66 °F (2007)
Min Temperature 28 °F 33 °F 19 °F (2000)
Degree Days  
Heating Degree Days 24    
Moisture  
Dew Point 39 °F    
Average Humidity 85    
Maximum Humidity 97    
Minimum Humidity 61    
Precipitation  
Precipitation 0.00 in - - ()
Sea Level Pressure  
Sea Level Pressure 29.88 in    
Wind  
Wind Speed 4 mph (SSW)    
Max Wind Speed 7 mph    
Max Gust Speed 21 mph    
Visibility 10 miles    
Events Rain    
Averages and records for this station are not official NWS values.
T = Trace of Precipitation, MM = Missing Value Source: NWS Daily Summary

Daily Weather History Graph

Daily Weather History Graph

Search for Another Location

Airport or City:

Astronomy

Nov. 19, 2019 Rise Set
Actual Time 6:40 AM CST 4:40 PM CST
Civil Twilight 6:12 AM CST 5:08 PM CST
Nautical Twilight 5:40 AM CST 5:40 PM CST
Astronomical Twilight 5:08 AM CST 6:12 PM CST
Moon 11:35 PM CST (11/19) 12:51 PM CST (11/19)
Length of Visible Light 10h 56m
Length of Day
9h 59m
Waning Gibbous, 51% of the Moon is Illuminated
Nov 19
Waning Gibbous
Nov 19
Last Quarter
Nov 26
New
Dec 4
First Quarter
Dec 11
Full

Hourly Weather History & Observations

Time (CST) Temp. Windchill Dew Point Humidity Pressure Visibility Wind Dir Wind Speed Gust Speed Precip Events Conditions
12:56 AM 45.0 °F 41.8 °F 41.0 °F 86% 29.77 in 10.0 mi SSW 5.8 mph - 0.00 in Rain Light Rain
1:56 AM 46.9 °F - 42.1 °F 83% 29.76 in 10.0 mi SSW 6.9 mph - 0.00 in   Overcast
2:56 AM 45.0 °F 41.8 °F 43.0 °F 93% 29.76 in 10.0 mi SSW 5.8 mph - 0.00 in Rain Light Rain
3:56 AM 45.0 °F 41.8 °F 42.1 °F 90% 29.75 in 10.0 mi South 5.8 mph - 0.00 in   Overcast
4:56 AM 44.1 °F 42.5 °F 42.1 °F 93% 29.75 in 10.0 mi SSW 3.5 mph - N/A   Overcast
5:56 AM 42.1 °F - 41.0 °F 96% 29.75 in 10.0 mi Calm Calm - N/A   Partly Cloudy
6:56 AM 41.0 °F 39.0 °F 39.9 °F 96% 29.78 in 10.0 mi SW 3.5 mph - N/A   Scattered Clouds
7:56 AM 43.0 °F 39.5 °F 42.1 °F 97% 29.79 in 7.0 mi SSW 5.8 mph - N/A   Overcast
8:56 AM 46.0 °F 42.5 °F 43.0 °F 89% 29.81 in 10.0 mi WSW 6.9 mph - 0.00 in Rain Light Rain
9:56 AM 48.9 °F - 44.1 °F 83% 29.82 in 10.0 mi Variable 4.6 mph - N/A   Overcast
10:56 AM 50.0 °F - 44.1 °F 80% 29.83 in 10.0 mi Variable 5.8 mph - N/A   Overcast
11:56 AM 48.9 °F - 43.0 °F 80% 29.83 in 10.0 mi Variable 4.6 mph - N/A   Overcast
12:56 PM 50.0 °F - 41.0 °F 71% 29.86 in 10.0 mi Variable 5.8 mph 20.7 mph N/A   Overcast
1:22 PM 51.8 °F - 42.8 °F 71% 29.85 in 10.0 mi Variable 3.5 mph - N/A   Mostly Cloudy
1:56 PM 53.1 °F - 41.0 °F 64% 29.88 in 10.0 mi Variable 6.9 mph - N/A   Overcast
2:56 PM 52.0 °F - 39.0 °F 61% 29.91 in 10.0 mi Variable 6.9 mph - N/A   Mostly Cloudy
3:56 PM 52.0 °F - 39.0 °F 61% 29.94 in 10.0 mi Variable 4.6 mph - N/A   Partly Cloudy
4:56 PM 46.9 °F - 39.0 °F 74% 29.96 in 10.0 mi Calm Calm - N/A   Clear
5:56 PM 41.0 °F - 37.0 °F 86% 30.00 in 10.0 mi Calm Calm - N/A   Clear
6:56 PM 37.0 °F - 36.0 °F 96% 30.01 in 10.0 mi Calm Calm - N/A   Clear
7:56 PM 34.0 °F - 32.0 °F 92% 30.03 in 10.0 mi Calm Calm - N/A   Clear
8:56 PM 30.9 °F - 28.9 °F 92% 30.04 in 9.0 mi Calm Calm - N/A   Clear
9:56 PM 30.0 °F - 28.0 °F 92% 30.06 in 9.0 mi Calm Calm - N/A   Clear
10:56 PM 28.9 °F - 27.0 °F 92% 30.06 in 9.0 mi Calm Calm - N/A   Clear
11:56 PM 28.0 °F - 27.0 °F 96% 30.08 in 8.0 mi Calm Calm - N/A   Clear